COSMOS 1275 DEB

Satellite information

Favourite Embed

Satellite Type and Status

DEBRISIN ORBIT

Key statistics

Satellite COSMOS 1275 DEB at a glance.

Uptime

16264

Days in orbit

Revolutions

≈ 13.9

Per day

Orbit

LEO

Low Earth Orbit

Inclination

83.0

Latest

Satellite identification and parameters

Extended collection of information and parameters for COSMOS 1275 DEB.

Object identification

Identified? True

Debris? True

Object name: COSMOS 1275 DEB

International designator: 1981-053AJ

Object number (NORAD): 12690

Object ID (CCSDS): 12690

Country: COMMONWEALTH OF INDEPENDENT STATES (CIS)

Current information (Y/N): Y

RCS size: MEDIUM

Orbital parameters

Period: 103.907 minutes

Inclination: 82.9507 deg

SMA: 7321.354 km

Apoapsis: 1010.075 km

Periapsis: 876.362 km

RAAN: 115.5628 deg

Eccentricy: 0.00913176

Argument of periapsis: 281.8438 deg

Mean anomaly: 197.9662 deg

Mean motion: 13.85848291 rev/day

Mean motion (dot): 0.00002286 rev/day2

B* drag term: 0.0019177561 1/REarth

Two-line elements (TLE)

Creation date: Dec. 12, 2025, 10:14 a.m.

Reference frame: TEME

Reference center: EARTH

Epoch: Dec. 12, 2025, 3:11 a.m. UTC

TLE line 0: 0 COSMOS 1275 DEB

TLE line 1: 1 12690U 81053AJ 25346.13299833 .00002286 00000-0 19178-2 0 9999

TLE line 2: 2 12690 82.9507 115.5628 0091318 281.8438 197.9662 13.85848291218218

Live tracking on map

Real-time ground track for satellite COSMOS 1275 DEB.

In-orbit conjunctions

A list of the most updated potential collisions computed for object COSMOS 1275 DEB.

Target Orbit TCA Probability of collision Miss distance Type
CZ-6A DEB SSO 2025-04-22 16:05:30 0.0001487281 18.0 (m) DEBRIS
GGSE 1 (GGRS) LEO 2024-07-01 22:00:29 0.001044401 399.0 (m) PAYLOAD

Associated space launch

Navigation satellite providing location information for the Tsiklon-B navigation system

COSMOS 1275 DEB was lifted into orbit during the mission ‘Kosmos-3M | Parus 27’, on board a Kosmos-3M space rocket.

The launch took place on June 4, 1981, 3:41 p.m. from 132/2.

For more information about the launch, click the button.

Launch to space Kosmos-3M | Parus 27
Kosmos-3M | Parus 27

Agency: N/A

Status: Launch Successful

Launch date: June 4, 1981, 3:41 p.m. UTC

Rocket: Kosmos-3M

Launch pad: 132/2

Location: Plesetsk Cosmodrome, Russian Federation

...

Latest news about this satellite

There are no fresh news available about this satellite. Check back as we update our databases every day.


Newsletter sign-up

Weekly statistics, charts and insights to help you stay on top of the space industry.